Decorah, Iowa, United States (52101)
Lat: 43.30N, Lon: 91.79W
Wx Zone: IAZ010
Local Info
Past Weather Observations for Today

NOTE: This archive is for the closest National Weather Service station to Decorah. Information may differ from the station used for current weather conditions.

Click here for Long-term Archive

Time Weather Temperature Dewpoint Humidity Pressure Winds Precip Visibility
16:15
Clear
9°F / -13°C -4°F / -20°C 56% 30.45 in
(1031 mb)
Variable 6.9 mph
(Variable 11 kph)
- 10SM
15:55
Clear
9°F / -13°C -4°F / -20°C 56% 30.45 in
(1031 mb)
SSW 6.9 mph
(SSW 11 kph)
- 10SM
15:35
Clear
9°F / -13°C -4°F / -20°C 56% 30.45 in
(1031 mb)
SSW 8.1 mph
(SSW 13 kph)
- 10SM
15:15
Clear
9°F / -13°C -4°F / -20°C 56% 30.45 in
(1031 mb)
SSW 8.1 mph
(SSW 13 kph)
- 10SM
14:55
Clear
9°F / -13°C -4°F / -20°C 56% 30.45 in
(1031 mb)
SSW 10.4 mph
(SSW 17 kph)
- 10SM
14:35
Clear
9°F / -13°C -6°F / -21°C 51% 30.45 in
(1031 mb)
Variable 5.8 mph
(Variable 9 kph)
- 10SM
14:15
Clear
9°F / -13°C -6°F / -21°C 51% 30.45 in
(1031 mb)
Variable 6.9 mph
(Variable 11 kph)
- 10SM
13:55
Clear
9°F / -13°C -6°F / -21°C 51% 30.45 in
(1031 mb)
SSW 8.1 mph
(SSW 13 kph)
- 10SM
13:35
Clear
7°F / -14°C -8°F / -22°C 51% 30.48 in
(1032 mb)
W 8.1 mph
(W 13 kph)
- 10SM
13:15
Clear
7°F / -14°C -8°F / -22°C 51% 30.48 in
(1032 mb)
NW 8.1 mph
(NW 13 kph)
- 10SM
12:55
Clear
7°F / -14°C -8°F / -22°C 51% 30.48 in
(1032 mb)
SW 8.1 mph
(SW 13 kph)
- 10SM
12:35
Clear
7°F / -14°C -9°F / -23°C 47% 30.51 in
(1033 mb)
WNW 8.1 mph
(WNW 13 kph)
- 10SM
12:15
Clear
7°F / -14°C -8°F / -22°C 51% 30.51 in
(1033 mb)
SSW 8.1 mph
(SSW 13 kph)
- 10SM
11:55
Clear
5°F / -15°C -9°F / -23°C 51% 30.51 in
(1033 mb)
SSW 8.1 mph
(SSW 13 kph)
- 10SM
11:35
Clear
5°F / -15°C -9°F / -23°C 51% 30.51 in
(1033 mb)
Variable 5.8 mph
(Variable 9 kph)
- 10SM
11:15
Clear
5°F / -15°C -11°F / -24°C 46% 30.51 in
(1033 mb)
Variable 5.8 mph
(Variable 9 kph)
- 10SM
09:55
Clear
1°F / -17°C -11°F / -24°C 55% 30.51 in
(1033 mb)
N 3.5 mph
(N 6 kph)
- 10SM
09:35
Clear
°F / -18°C -11°F / -24°C 60% 30.51 in
(1033 mb)
Calm - 10SM
09:15
Clear
-2°F / -19°C -13°F / -25°C 59% 30.51 in
(1033 mb)
Calm - 10SM
08:55
Clear
-4°F / -20°C -13°F / -25°C 65% 30.51 in
(1033 mb)
Variable 3.5 mph
(Variable 6 kph)
- 10SM
08:35
Clear
-6°F / -21°C -15°F / -26°C 64% 30.51 in
(1033 mb)
Calm - 10SM
08:15
Clear
-6°F / -21°C -15°F / -26°C 64% 30.51 in
(1033 mb)
Calm - 10SM
07:55
Clear
-6°F / -21°C -15°F / -26°C 64% 30.48 in
(1032 mb)
W 4.6 mph
(W 7 kph)
- 10SM
07:35
Clear
-8°F / -22°C -15°F / -26°C 70% 30.48 in
(1032 mb)
Calm - 10SM
07:15
Clear
-9°F / -23°C -17°F / -27°C 70% 30.45 in
(1031 mb)
Calm - 10SM
06:55
Clear
-9°F / -23°C -17°F / -27°C 70% 30.45 in
(1031 mb)
Calm - 10SM
06:35
Clear
-9°F / -23°C -17°F / -27°C 70% 30.45 in
(1031 mb)
Calm - 10SM
06:15
Clear
-8°F / -22°C -15°F / -26°C 70% 30.42 in
(1030 mb)
WNW 3.5 mph
(WNW 6 kph)
- 10SM
05:55
Clear
-8°F / -22°C -15°F / -26°C 70% 30.42 in
(1030 mb)
NW 4.6 mph
(NW 7 kph)
- 10SM
05:35
Clear
-8°F / -22°C -15°F / -26°C 70% 30.42 in
(1030 mb)
NW 4.6 mph
(NW 7 kph)
- 10SM
05:15
Clear
-6°F / -21°C -15°F / -26°C 64% 30.42 in
(1030 mb)
NW 4.6 mph
(NW 7 kph)
- 10SM
04:55
Clear
-6°F / -21°C -13°F / -25°C 70% 30.39 in
(1029 mb)
WNW 4.6 mph
(WNW 7 kph)
- 10SM
04:35
Clear
-6°F / -21°C -13°F / -25°C 70% 30.39 in
(1029 mb)
WNW 3.5 mph
(WNW 6 kph)
- 10SM
04:15
Clear
-6°F / -21°C -13°F / -25°C 70% 30.39 in
(1029 mb)
NW 4.6 mph
(NW 7 kph)
- 10SM
03:55
Clear
-6°F / -21°C -13°F / -25°C 70% 30.39 in
(1029 mb)
NW 5.8 mph
(NW 9 kph)
- 10SM
03:35
Clear
-6°F / -21°C -13°F / -25°C 70% 30.39 in
(1029 mb)
NW 4.6 mph
(NW 7 kph)
- 10SM
03:15
Clear
-6°F / -21°C -13°F / -25°C 70% 30.39 in
(1029 mb)
NW 5.8 mph
(NW 9 kph)
- 10SM
02:55
Clear
-4°F / -20°C -11°F / -24°C 71% 30.39 in
(1029 mb)
Calm - 10SM
02:35
Clear
-4°F / -20°C -13°F / -25°C 65% 30.39 in
(1029 mb)
NW 4.6 mph
(NW 7 kph)
- 10SM
02:15
Clear
-4°F / -20°C -11°F / -24°C 71% 30.39 in
(1029 mb)
NW 4.6 mph
(NW 7 kph)
- 10SM
01:55
Clear
-4°F / -20°C -11°F / -24°C 71% 30.39 in
(1029 mb)
NW 4.6 mph
(NW 7 kph)
- 10SM
01:35
Clear
-2°F / -19°C -11°F / -24°C 65% 30.39 in
(1029 mb)
NW 4.6 mph
(NW 7 kph)
- 10SM
01:15
Clear
-2°F / -19°C -11°F / -24°C 65% 30.39 in
(1029 mb)
NW 3.5 mph
(NW 6 kph)
- 10SM
00:55
Clear
-2°F / -19°C -11°F / -24°C 65% 30.39 in
(1029 mb)
WNW 3.5 mph
(WNW 6 kph)
- 10SM
00:35
Clear
-2°F / -19°C -11°F / -24°C 65% 30.39 in
(1029 mb)
W 3.5 mph
(W 6 kph)
- 10SM
00:15
Clear
°F / -18°C -11°F / -24°C 60% 30.39 in
(1029 mb)
W 4.6 mph
(W 7 kph)
- 10SM
Time Weather Temperature Dewpoint Humidity Pressure Winds Precip Visibility


Weather for websites

WeatherForYou.com, LLC is not responsible for any damages or problems caused by this service. Current weather conditions are obtained from the closest station including government and personal stations which may have varying degrees of accuracy. Weather forecasts are derived from the NOAA NDFD. Like all things, this site belongs to Jesus Christ... He just trusts me to maintain it. If you have any questions or comments email webmaster@weatherforyou.com

Copyright © 2015, WeatherForYou.com LLC. All rights reserved.